#timestamp,LO_Frequency,Hit,StdDev 
1655992815.7,286047000.9,N
1655992835.5,286047002.8,N
1655992855.4,286047000.4,N
1655992875.2,286047001.0,N
1655992895.0,286047000.6,N
1655992895.9,286047000.6,N
1655992915.8,286047000.7,N
1655992935.6,286046998.6,N
1655992955.4,286047000.8,N
1655992975.3,286046998.1,N
1655992995.1,286046998.1,N
1655993015.9,286046998.7,N
1655993035.7,286046999.3,N
1655993055.5,286046998.9,N
1655993075.4,286046998.4,N
1655993095.2,286047000.9,N
1655993115.1,286047000.8,N
1655993116.0,286047000.8,N
1655993135.8,286046998.7,N
1655993155.6,286046999.4,N
1655993175.5,286046999.0,N
1655993195.3,286046998.3,N
1655993215.1,286046998.4,N
1655993235.9,286046998.4,N
1655993255.7,286047001.0,N
1655993275.6,286046998.3,N
1655993295.4,286046998.5,N
1655993315.2,286046999.4,N
1655993335.1,286046996.9,N
1655993336.0,286046996.9,N
1655993355.8,286046999.0,N
1655993375.7,286046999.6,N
1655993395.5,286046997.0,N
1655993415.3,286046996.9,N
1655993435.2,286046997.7,N
1655993455.0,286046999.1,N
1655993455.9,286046999.1,N
1655993475.7,286046996.6,N
1655993495.6,286046999.2,N
1655993515.4,286046999.2,N
1655993535.3,286046999.1,N
1655993555.1,286046999.2,N
1655993556.0,286046999.2,N
1655993575.8,286046996.9,N
1655993595.7,286046999.1,N
1655993615.5,286046999.2,N
1655993635.3,286046999.0,N
1655993655.2,286046998.2,N
1655993675.0,286046998.9,N
1655993675.9,286046998.9,N
1655993695.8,286046999.1,N
1655993715.6,286046996.6,Y
1655993735.4,286047001.1,P
1655993755.3,286046998.2,N
1655993775.1,286047000.5,N
1655993795.9,286047000.9,N
1655993815.7,286047000.3,N
1655993835.5,286047000.2,N
1655993855.4,286047000.8,N
1655993875.2,286047000.7,N
1655993895.1,286046998.5,N
1655993896.0,286046998.5,N
1655993915.8,286046998.6,N
1655993935.6,286047000.8,N
1655993955.5,286046998.2,N
1655993975.3,286046998.5,N
1655993995.1,286046998.8,N
1655994015.9,286047000.9,N
1655994035.7,286047001.2,N
1655994055.6,286046998.1,N
1655994075.4,286046999.4,N
1655994095.2,286046999.4,N
1655994115.1,286046999.4,N
1655994116.0,286046999.4,N
1655994135.8,286046999.4,N
1655994155.6,286046998.2,N
1655994175.5,286046998.1,N
1655994195.3,286046998.2,N
1655994215.2,286047002.5,N
1655994235.9,286047007.2,Y
1655994255.7,286047006.1,P
1655994275.6,286047005.0,N
1655994295.4,286047003.3,N
1655994315.2,286047001.4,N
1655994335.1,286047004.3,N
1655994336.0,286047004.3,N
1655994355.8,286047002.4,N
1655994375.7,286047001.6,N
1655994395.5,286047001.9,N
1655994415.3,286047001.7,N
1655994435.2,286047004.2,N
1655994455.0,286047003.9,N
1655994455.9,286047003.9,N
1655994475.8,286047003.8,N
1655994495.6,286047004.3,N
1655994515.4,286047002.6,N
1655994535.3,286047002.0,N
1655994555.1,286047002.3,N
1655994575.8,286047001.7,N
1655994595.7,286047002.3,N
1655994615.5,286046999.7,N
1655994635.4,286047001.1,N
1655994655.2,286047002.7,N
1655994675.0,286047001.8,N
1655994675.9,286047001.8,N
1655994695.8,286047002.3,N
1655994715.6,286047002.1,N
1655994735.4,286047002.8,N
1655994755.3,286047000.2,N
1655994775.1,286046999.9,N
1655994795.9,286046998.9,N
1655994815.7,286047001.2,N
1655994835.5,286047000.4,N
1655994855.4,286046999.9,N
1655994875.2,286046999.7,N
1655994895.0,286047002.3,N
1655994895.9,286047002.3,N
1655994915.8,286047002.5,N
1655994935.6,286047001.5,N
1655994955.5,286047001.4,N
1655994975.3,286047002.1,N
1655994995.1,286047001.7,N
1655995015.9,286047001.4,N
1655995035.7,286047001.8,N
1655995055.6,286047004.4,Y
1655995075.4,286047000.0,P
1655995095.2,286046999.9,N
1655995115.1,286047000.3,N
1655995116.0,286047000.3,N
1655995135.8,286047000.0,N
1655995155.7,286047000.3,N
1655995175.5,286047000.7,N
1655995195.3,286047001.1,N
1655995215.2,286047000.8,N
1655995235.0,286047001.0,N
1655995235.9,286047001.0,N
1655995255.7,286047000.0,N
1655995275.6,286047000.4,N
1655995295.4,286047000.0,N
1655995315.3,286047002.4,Y
1655995335.1,286047000.3,P
1655995355.8,286047000.1,N
1655995375.7,286047000.2,N
1655995395.5,286047000.3,N
1655995415.3,286047000.3,N
1655995435.2,286047000.5,Y
1655995455.0,286047000.3,P
1655995455.9,286047000.3,P
1655995475.8,286047000.8,P
1655995495.6,286046998.1,Y
1655995515.4,286046998.4,P
1655995535.3,286046998.1,N
1655995555.1,286046998.3,N
1655995575.9,286046996.8,Y
1655995595.7,286046998.4,P
1655995615.5,286046996.5,P
1655995635.4,286046999.4,N
1655995655.2,286046999.1,N
1655995675.0,286047001.1,N
1655995676.0,286047001.1,N
1655995695.8,286047000.4,N
1655995715.6,286047000.2,N
1655995735.5,286046999.8,N
1655995755.3,286046998.2,N
1655995775.1,286046999.2,N
1655995795.9,286046998.9,N
1655995815.7,286046996.8,N
1655995835.6,286046999.2,N
1655995855.4,286046999.5,N
1655995875.2,286046998.5,N
1655995895.1,286046998.3,N
1655995896.0,286046998.3,N
1655995915.8,286047001.0,N
1655995935.7,286047000.9,N
1655995955.5,286047000.4,N
1655995975.3,286046998.8,N
1655995995.2,286047000.6,N
1655996015.0,286047000.4,N
1655996015.9,286047000.4,N
1655996035.7,286047001.0,N
1655996055.6,286046999.8,N
1655996075.4,286047002.0,N
1655996095.3,286047002.5,N
1655996115.1,286047000.5,N
1655996116.0,286047000.5,N
1655996135.8,286047000.9,N
1655996155.7,286047000.8,N
1655996175.5,286046998.2,N
1655996195.3,286046998.8,N
1655996215.2,286047000.6,N
1655996235.0,286047000.5,N
1655996235.9,286047000.5,N
1655996255.8,286047000.0,N
1655996275.6,286046999.9,N
1655996295.4,286046999.7,N
1655996315.3,286047002.3,N
1655996335.1,286047002.4,N
1655996355.9,286047002.3,N
1655996375.7,286047000.3,N
1655996395.5,286047000.2,N
